Flag for Brazil Weather past 2 weeks in Florianópolis, Santa Catarina, Brazil

Now
64 °F

Clear.


Feels Like: 64 °F
Forecast: N/A
Wind: 1 mph from West

Location: Florianopolis Aeroporto

Current Time: Aug 21, 2014 at 7:33:11 PM

Latest Report: Aug 21, 2014 at 7:00 PM


Visibility: 10 mi

Pressure: 30.04 "Hg

Humidity: 83%

Dew point: 59 °F

Location of FlorianópolisLocation

Historic Weather in Florianópolis — Graph

°F

Florianópolis temperature yesterday

Maximum temperature yesterday: 70 °F (at 2:00 PM)
Minimum temperature yesterday: 59 °F (at 2:00 AM)
Average temperature yesterday: 65 °F

Past Weeks' High & Low Weather Summary

 TemperatureHumidityPressure
High82 °F (Aug 11, 2:00 PM)100% (Aug 9, 7:00 AM)30.45 "Hg (Aug 9, 7:00 AM)
Low48 °F (Aug 14, 5:00 AM)27% (Aug 13, 2:00 PM)29.92 "Hg (Aug 11, 1:00 PM)
Average63 °F76%30.19 "Hg
* Reported Aug 6 6:00 PM — Aug 21 6:00 PM, Florianópolis, Weather by CustomWeather, © 2014

Note: Actual official high and low records may vary slightly from our data, if they occured in-between our weather recording intervals... More about our weather records

Advertising

Florianópolis weather history for previous 24 hours

 ConditionsComfort  
Time TempWeatherWind HumidityBarometerVisibility
6:00 PM
Aug 21
70 °FClear.8 mph73%30.04 "Hg10 mi
5:00 PM73 °FClear.7 mph65%30.01 "Hg10 mi
4:00 PM75 °FSunny.8 mph54%30.01 "Hg10 mi
3:00 PM77 °FSunny.8 mph51%30.01 "Hg10 mi
2:00 PM75 °FSunny.10 mph50%30.04 "Hg10 mi
1:00 PM75 °FSunny.14 mph50%30.04 "Hg10 mi
12:00 PM73 °FSunny.16 mph53%30.09 "Hg10 mi
11:00 AM72 °FSunny.20 mph57%30.12 "Hg10 mi
10:00 AM70 °FSunny.14 mph60%30.12 "Hg10 mi
9:00 AM64 °FSunny.17 mph73%30.15 "Hg10 mi
8:00 AM63 °FSunny.16 mph73%30.15 "Hg10 mi
7:00 AM61 °FSunny.12 mph83%30.15 "Hg10 mi
6:00 AM61 °FSunny.7 mph83%30.12 "Hg10 mi
5:00 AM61 °FClear.12 mph88%30.12 "Hg10 mi
4:00 AM63 °FClear.12 mph83%30.12 "Hg10 mi
3:00 AM63 °FClear.13 mph83%30.15 "Hg10 mi
2:00 AM63 °FClear.9 mph83%30.18 "Hg10 mi
1:00 AM63 °FPassing clouds.8 mph88%30.21 "HgN/A
12:00 AM64 °FPassing clouds.14 mph88%30.21 "HgN/A
11:00 PM
Aug 20
64 °FPassing clouds.13 mph88%30.21 "HgN/A
10:00 PM64 °FPassing clouds.9 mph88%30.21 "HgN/A
9:00 PM64 °FPassing clouds.10 mph88%30.21 "HgN/A
8:00 PM64 °FPassing clouds.10 mph83%30.21 "HgN/A
7:00 PM66 °FPassing clouds.7 mph78%30.18 "HgN/A
Weather by CustomWeather, © 2014

See weather overviewHow to use our weather pages